DG7AA-13 Weather Reports


time (UTC)temp
C
wind
direction
speed
KPH
gust
KPH
rain 1hr
cm
rain 24hr
cm
rain mn
cm
humidity
%
barometer
mb
20260506134524 11 340 3.2 8.0 0.00 0.79 0.61 97
20260506133525 11 344 3.2 6.4 0.00 0.79 0.61 97
20260506132522 11 352 4.8 9.7 0.00 0.79 0.61 97
20260506131534 11 346 3.2 8.0 0.00 0.79 0.61 97
20260506130522 11 339 3.2 6.4 0.00 0.79 0.61 97
20260506125522 11 351 4.8 9.7 0.00 0.79 0.61 97
20260506124523 11 345 3.2 6.4 0.00 0.79 0.61 97
20260506123533 11 332 3.2 8.0 0.00 0.79 0.61 97
20260506122526 11 338 3.2 8.0 0.00 0.79 0.61 96
20260506121534 11 331 3.2 6.4 0.00 0.79 0.61 96
20260506120522 11 341 4.8 11.3 0.00 0.79 0.61 96
20260506115530 11 338 4.8 9.7 0.00 0.79 0.61 96
20260506114548 11 348 3.2 6.4 0.00 0.79 0.61 96
20260506113531 10 337 3.2 8.0 0.00 0.79 0.61 97
20260506112523 10 341 4.8 8.0 0.00 0.79 0.61 97
20260506111527 10 348 4.8 8.0 0.00 0.79 0.61 97
20260506110525 11 348 4.8 8.0 0.00 0.79 0.61 97
20260506105534 11 347 3.2 6.4 0.00 0.79 0.61 97
20260506104526 11 337 4.8 9.7 0.00 0.79 0.61 97
20260506103530 10 345 3.2 8.0 0.00 0.79 0.61 98
20260506102523 10 351 3.2 6.4 0.00 0.79 0.61 98
20260506101524 10 345 3.2 8.0 0.00 0.79 0.61 97
20260506100523 10 347 3.2 8.0 0.00 0.79 0.61 97
20260506095533 10 346 1.6 6.4 0.00 0.79 0.61 98
20260506094525 10 350 3.2 6.4 0.00 0.79 0.61 98
20260506093531 10 345 3.2 6.4 0.00 0.79 0.61 97
20260506092523 10 339 4.8 6.4 0.00 0.79 0.61 97
20260506091530 11 344 3.2 6.4 0.00 0.79 0.61 97
20260506090523 11 329 3.2 6.4 0.00 0.79 0.61 98
20260506085531 11 342 3.2 8.0 0.00 0.79 0.61 97
20260506084523 11 334 3.2 6.4 0.00 0.79 0.61 98
20260506083524 11 336 1.6 4.8 0.00 0.79 0.61 98
20260506082523 11 329 1.6 4.8 0.00 0.79 0.61 98
20260506081526 11 325 1.6 6.4 0.00 0.79 0.61 98
20260506080522 11 339 3.2 6.4 0.00 0.79 0.61 98
20260506073529 11 334 1.6 4.8 0.00 0.79 0.61 98
20260506072526 11 332 1.6 4.8 0.00 0.79 0.61 98
20260506071534 11 329 1.6 6.4 0.00 0.79 0.61 98
20260506070523 11 318 0.0 3.2 0.00 0.79 0.61 99
20260506061534 10 309 0.0 1.6 0.00 0.79 0.61 99
20260506060526 10 335 0.0 3.2 0.00 0.79 0.61 99
20260506050523 10 95 0.0 3.2 0.00 0.79 0.61 99
20260506044523 10 331 0.0 3.2 0.00 0.79 0.61 99
20260506043531 10 341 0.0 3.2 0.00 0.79 0.61 99
20260506042526 10 335 0.0 3.2 0.00 0.79 0.61 99
20260506041526 10 346 1.6 4.8 0.00 0.81 0.61 99
20260506040526 10 341 1.6 3.2 0.00 0.81 0.61 99
20260506035533 10 340 1.6 6.4 0.00 0.81 0.61 99
20260506034522 10 336 0.0 3.2 0.00 0.84 0.61 98
20260506033533 10 340 0.0 3.2 0.00 0.84 0.61 98
20260506032523 10 344 0.0 1.6 0.00 0.84 0.61 98
20260506031530 10 344 0.0 1.6 0.00 0.89 0.61 98
20260506030523 10 345 1.6 4.8 0.00 0.89 0.61 98
20260506025524 10 345 1.6 3.2 0.00 0.94 0.61 98
20260506024526 10 348 0.0 3.2 0.00 0.94 0.61 98
20260506023526 10 338 0.0 3.2 0.00 0.94 0.61 98
20260506022522 10 315 0.0 3.2 0.00 0.94 0.61 98
20260506021530 11 341 1.6 3.2 0.00 0.94 0.61 98
20260506020522 11 352 1.6 4.8 0.00 0.94 0.61 98
20260506015534 11 349 1.6 3.2 0.00 0.94 0.61 98
20260506014522 11 332 0.0 3.2 0.03 0.94 0.61 98
20260506013534 11 353 1.6 4.8 0.05 0.94 0.61 98
20260506012526 11 346 0.0 3.2 0.10 0.94 0.61 98
20260506011534 11 351 1.6 4.8 0.15 0.94 0.61 98
20260506010523 11 350 3.2 6.4 0.18 0.94 0.61 98
20260506005521 11 336 3.2 6.4 0.23 0.94 0.61 98
20260506004522 11 347 3.2 6.4 0.28 0.89 0.56 98
20260506003531 11 359 3.2 6.4 0.28 0.86 0.53 98
20260506002525 11 344 3.2 6.4 0.28 0.86 0.51 98
20260506001530 11 346 3.2 4.8 0.23 0.81 0.46 98
20260506000523 11 348 1.6 3.2 0.23 0.79 0.43 98
20260505235523 11 341 1.6 4.8 0.20 0.71 0.36 97
20260505234527 11 329 0.0 3.2 0.18 0.66 0.30 97
20260505233534 11 343 3.2 6.4 0.18 0.64 0.28 97
20260505232523 11 339 1.6 3.2 0.18 0.61 0.23 97
20260505231533 11 338 1.6 4.8 0.15 0.56 0.20 97
20260505230522 11 346 1.6 6.4 0.15 0.53 0.18 97
20260505225522 11 353 1.6 4.8 0.15 0.51 0.15 97
20260505224526 11 336 1.6 4.8 0.13 0.48 0.13 97
20260505223530 11 339 3.2 6.4 0.13 0.46 0.10 97
20260505222523 11 350 3.2 6.4 0.13 0.43 0.05 97
20260505221534 11 346 3.2 6.4 0.13 0.43 0.05 97
20260505220523 11 349 3.2 6.4 0.13 0.38 0.03 97
20260505215530 12 345 0.0 3.2 0.10 0.36 0.36 97
20260505214523 12 335 1.6 3.2 0.13 0.36 0.36 97
20260505213528 12 346 1.6 6.4 0.10 0.33 0.33 97
20260505212525 12 324 0.0 3.2 0.10 0.30 0.30 97
20260505211531 12 333 0.0 3.2 0.10 0.30 0.30 96
20260505210525 12 340 1.6 3.2 0.05 0.28 0.28 96
20260505205536 12 347 1.6 6.4 0.10 0.28 0.28 96
20260505204522 12 340 1.6 4.8 0.05 0.23 0.23 96
20260505203526 12 336 1.6 6.4 0.05 0.23 0.23 96
20260505202523 12 345 1.6 3.2 0.03 0.20 0.20 95
20260505201531 12 345 3.2 8.0 0.03 0.20 0.20 95
20260505200526 12 341 3.2 6.4 0.03 0.23 0.20 95
20260505195531 12 347 1.6 4.8 0.00 0.20 0.18 95
20260505194523 12 343 4.8 8.0 0.00 0.20 0.18 94
20260505193534 13 337 4.8 11.3 0.00 0.20 0.18 93
20260505192523 13 347 3.2 8.0 0.00 0.20 0.18 93
20260505191534 13 349 3.2 6.4 0.00 0.20 0.18 93
20260505190525 13 356 1.6 4.8 0.00 0.23 0.18 92
20260505185526 13 338 3.2 11.3 0.00 0.23 0.18 91
20260505184522 13 334 1.6 4.8 0.00 0.28 0.18 90
20260505183524 14 341 3.2 8.0 0.00 0.28 0.18 90
20260505182522 14 346 1.6 6.4 0.00 0.33 0.18 90
20260505181530 14 335 3.2 11.3 0.00 0.33 0.18 89
20260505180526 14 335 3.2 6.4 0.00 0.38 0.18 89
20260505175546 14 346 3.2 8.0 0.00 0.43 0.18 89
20260505174523 15 340 3.2 6.4 0.00 0.43 0.18 88
20260505173526 15 348 3.2 6.4 0.00 0.43 0.18 88
20260505172525 15 334 1.6 4.8 0.00 0.43 0.18 88
20260505171520 15 346 3.2 8.0 0.00 0.43 0.18 88
20260505170519 15 331 3.2 6.4 0.00 0.43 0.18 87
20260505165530 15 344 1.6 8.0 0.00 0.43 0.18 87
20260505164527 15 344 3.2 6.4 0.00 0.43 0.18 86
20260505163530 15 350 1.6 4.8 0.00 0.43 0.18 86
20260505162525 15 346 3.2 6.4 0.00 0.43 0.18 86
20260505161529 15 338 4.8 9.7 0.00 0.43 0.18 85
20260505160526 15 342 3.2 6.4 0.00 0.43 0.18 85
20260505152522 16 339 3.2 9.7 0.00 0.43 0.18 83
20260505151531 16 342 4.8 11.3 0.00 0.43 0.18 83
20260505150521 16 347 6.4 16.1 0.00 0.43 0.18 82
20260505140526 17 335 6.4 11.3 0.00 0.43 0.18 81